Location: Unspecified
(42.3650°N, 71.1030°W)
Time: 23:04:44
(UTC+00:00)

Courier 1B Rocket - Pass Details

Date: 01 July 2024
Orbit: 920 x 1201 km, 28.2° (Epoch: 17 July)

Event Time Altitude Azimuth Distance (km) Brightness Sun altitude
Exits shadow 07:45:10 16° 203° (SSW) 2,295 6.4 -12.9°
Maximum altitude 07:45:52 16° 196° (SSW) 2,287 6.4 -12.8°
Drops below altitude 10° 07:49:39 10° 160° (SSE) 2,743 7.1 -12.4°
Sets 07:53:32 0° 140° (SE) 3,750 8.0 -11.9°
